TimeCDT,TemperatureF,Dew PointF,Humidity,Sea Level PressureIn,VisibilityMPH,Wind Direction,Wind SpeedMPH,Gust SpeedMPH,PrecipitationIn,Events,Conditions,WindDirDegrees,DateUTC
12:53 AM,37.0,33.1,86,30.25,9.0,Calm,Calm,-,N/A,,Overcast,0,2013-04-03 05:53:00
1:53 AM,37.0,33.1,86,30.25,10.0,ENE,3.5,-,N/A,,Overcast,60,2013-04-03 06:53:00
2:53 AM,36.0,30.9,82,30.23,10.0,NE,3.5,-,N/A,,Mostly Cloudy,40,2013-04-03 07:53:00
3:53 AM,35.1,28.0,76,30.21,10.0,ENE,5.8,-,N/A,,Clear,60,2013-04-03 08:53:00
4:53 AM,35.1,27.0,72,30.23,10.0,NE,4.6,-,N/A,,Clear,40,2013-04-03 09:53:00
5:53 AM,34.0,26.1,73,30.27,10.0,ENE,4.6,-,N/A,,Clear,60,2013-04-03 10:53:00
6:53 AM,33.1,25.0,72,30.27,10.0,NE,4.6,-,N/A,,Clear,50,2013-04-03 11:53:00
7:53 AM,34.0,24.1,67,30.29,10.0,NE,9.2,-,N/A,,Overcast,50,2013-04-03 12:53:00
8:53 AM,37.0,25.0,62,30.30,10.0,ENE,5.8,-,N/A,,Overcast,60,2013-04-03 13:53:00
9:53 AM,41.0,24.1,51,30.30,10.0,East,6.9,-,N/A,,Overcast,80,2013-04-03 14:53:00
10:53 AM,44.1,21.0,40,30.29,10.0,East,10.4,19.6,N/A,,Mostly Cloudy,80,2013-04-03 15:53:00
11:53 AM,48.0,19.9,33,30.27,10.0,East,13.8,19.6,N/A,,Overcast,100,2013-04-03 16:53:00
12:53 PM,48.9,19.0,31,30.25,10.0,ENE,11.5,-,N/A,,Overcast,60,2013-04-03 17:53:00
1:53 PM,50.0,19.0,29,30.22,10.0,East,9.2,-,N/A,,Partly Cloudy,100,2013-04-03 18:53:00
2:53 PM,53.1,19.9,27,30.21,10.0,Variable,5.8,17.3,N/A,,Overcast,0,2013-04-03 19:53:00
3:53 PM,52.0,19.9,28,30.21,10.0,East,9.2,-,N/A,,Mostly Cloudy,90,2013-04-03 20:53:00
4:53 PM,52.0,19.0,27,30.19,10.0,ESE,10.4,-,N/A,,Scattered Clouds,120,2013-04-03 21:53:00
5:53 PM,51.1,19.9,29,30.18,10.0,East,8.1,-,N/A,,Scattered Clouds,100,2013-04-03 22:53:00
6:53 PM,50.0,23.0,35,30.19,10.0,SSE,4.6,-,N/A,,Mostly Cloudy,150,2013-04-03 23:53:00
7:53 PM,48.0,23.0,37,30.17,10.0,ESE,4.6,-,N/A,,Overcast,120,2013-04-04 00:53:00
8:53 PM,46.9,24.1,41,30.17,10.0,ESE,3.5,-,N/A,,Overcast,120,2013-04-04 01:53:00
9:53 PM,46.9,24.1,41,30.19,10.0,ESE,4.6,-,N/A,,Overcast,110,2013-04-04 02:53:00
10:53 PM,45.0,23.0,42,30.19,10.0,Calm,Calm,-,N/A,,Mostly Cloudy,0,2013-04-04 03:53:00
11:53 PM,44.1,24.1,45,30.18,10.0,East,3.5,-,N/A,,Overcast,80,2013-04-04 04:53:00